User: anonymous   Login
Location: Tucson
(32.2220°N, 110.9260°W)
Time: 17:47:23
(UTC-07:00)
Language:

GENESIS II - Orbit

View from above orbital plane
View from above orbital plane
View from above satellite
View from above satellite

Ground track
Ground track

The orbit data is extracted from the following two-line orbital elements,

1 31789U 07028A   19077.33702548  .00000442  00000-0  32389-4 0  9990
2 31789  64.5042  36.8669 0044459 300.1950  59.4772 15.16844738645829
Epoch (UTC): 18 March 2019 08:05:19
Eccentricity: 0.0044459
inclination: 64.5042°
perigee height: 485 km
apogee height: 546 km
right ascension of ascending node: 36.8669°
argument of perigee: 300.1950°
revolutions per day: 15.16844738
mean anomaly at epoch: 59.4772°
orbit number at epoch: 64582

The dashed part of the orbit path shows where the satellite is in the earth's shadow,  

DLR